Retour au catalogue

TITAN 3C TRANSTAGE DEB

LostMEO
NORAD 38695·DEBRIS·🇺🇸 United States

Lancé Sep 26, 1968 depuis Cape Canaveral Space Force Station

Loading…

Prochains Passages (prochaines 24 heures)

TLE

PériméSource: Space-Track

Époque: Jan 9, 2026, 17:39 UTC

1 38695U 68081V   26009.73578191 -.00000090  00000-0  00000-0 0  9992
2 38695   1.9319  22.3763 0438520 269.4944 164.5784  0.99391606 61778

Suivez TITAN 3C TRANSTAGE DEB en temps réel avec AllMySat

Download on the App Store